EW6288 Weather Reports


Display with metric or nautical units.
time (UTC)temp
F
wind
direction
speed
MPH
gust
MPH
rain 1hr
in
rain 24hr
in
rain mn
in
humidity
%
barometer
mb
20220528010608 85 5 0.0 2.0 0.00 0.00 0.00 52 1012.3
20220528010109 86 5 0.0 2.0 0.00 0.00 0.00 51 1012.3
20220528005615 86 5 0.0 3.0 0.00 0.00 0.00 50 1012.3
20220528005106 86 5 0.0 3.0 0.00 0.00 0.00 51 1012.2
20220528004607 87 5 1.0 3.0 0.00 0.00 0.00 50 1012.2
20220528004104 87 338 1.0 3.0 0.00 0.00 0.00 52 1012.2
20220528003607 87 0 1.0 4.0 0.00 0.00 0.00 51 1012.1
20220528003058 87 355 0.0 4.0 0.00 0.00 0.00 50 1012.1
20220528002600 88 355 1.0 5.0 0.00 0.00 0.00 50 1012.1
20220528002059 88 9 1.0 5.0 0.00 0.00 0.00 49 1012.1
20220528001601 89 32 1.0 5.0 0.00 0.00 0.00 48 1012.1
20220528001100 90 5 1.0 8.0 0.00 0.00 0.00 45 1012.1
20220528000558 89 333 1.0 8.0 0.00 0.00 0.00 46 1012.1
20220528000057 90 344 2.0 8.0 0.00 0.00 0.00 46 1012.0
20220527235558 90 342 1.0 8.0 0.00 0.00 0.00 46 1012.1
20220527235328 90 275 1.0 5.0 0.00 0.00 0.00 45 1012.0
20220527234556 91 269 1.0 5.0 0.00 0.00 0.00 45 1012.0
20220527234056 91 9 2.0 7.0 0.00 0.00 0.00 46 1012.0
20220527233556 91 57 2.0 7.0 0.00 0.00 0.00 44 1012.0
20220527233057 91 26 2.0 7.0 0.00 0.00 0.00 45 1012.0
20220527232557 91 287 2.0 7.0 0.00 0.00 0.00 44 1012.1
20220527232056 91 301 2.0 7.0 0.00 0.00 0.00 47 1012.2
20220527231552 92 294 2.0 7.0 0.00 0.00 0.00 43 1012.1
20220527231057 92 282 2.0 7.0 0.00 0.00 0.00 47 1012.2
20220527230552 92 289 2.0 7.0 0.00 0.00 0.00 45 1012.3
20220527230054 92 316 2.0 5.0 0.00 0.00 0.00 44 1012.3
20220527225556 92 279 3.0 8.0 0.00 0.00 0.00 44 1012.3
20220527225052 92 348 2.0 8.0 0.00 0.00 0.00 44 1012.3
20220527224552 92 32 3.0 6.0 0.00 0.00 0.00 44 1012.4
20220527224053 92 333 3.0 7.0 0.00 0.00 0.00 46 1012.4
20220527223548 92 19 2.0 7.0 0.00 0.00 0.00 47 1012.5
20220527223048 92 348 2.0 8.0 0.00 0.00 0.00 47 1012.5
20220527222547 92 289 2.0 8.0 0.00 0.00 0.00 47 1012.6
20220527222047 92 266 2.0 8.0 0.00 0.00 0.00 50 1012.6
20220527221546 91 28 3.0 8.0 0.00 0.00 0.00 51 1012.7
20220527221046 91 350 3.0 8.0 0.00 0.00 0.00 53 1012.7
20220527220545 91 28 2.0 8.0 0.00 0.00 0.00 51 1012.7
20220527220045 91 336 2.0 6.0 0.00 0.00 0.00 57 1012.8
20220527215551 91 209 2.0 5.0 0.00 0.00 0.00 57 1012.9
20220527215048 92 236 2.0 7.0 0.00 0.00 0.00 55 1012.9
20220527214547 92 347 2.0 7.0 0.00 0.00 0.00 55 1013.0
20220527214046 91 323 1.0 5.0 0.00 0.00 0.00 59 1013.0
20220527213546 91 343 2.0 5.0 0.00 0.00 0.00 62 1013.1
20220527213047 91 286 2.0 9.0 0.00 0.00 0.00 62 1013.2
20220527212546 92 317 2.0 9.0 0.00 0.00 0.00 60 1013.3
20220527212047 92 26 2.0 9.0 0.00 0.00 0.00 54 1013.3
20220527211548 91 277 2.0 9.0 0.00 0.00 0.00 58 1013.4
20220527211046 92 344 2.0 6.0 0.00 0.00 0.00 55 1013.5
20220527210546 91 350 1.0 6.0 0.00 0.00 0.00 56 1013.5
20220527210047 92 253 2.0 5.0 0.00 0.00 0.00 61 1013.6
20220527205547 91 111 2.0 7.0 0.00 0.00 0.00 58 1013.7
20220527205047 91 17 2.0 7.0 0.00 0.00 0.00 60 1013.8
20220527204546 91 49 2.0 4.0 0.00 0.00 0.00 58 1013.8
20220527204045 89 245 1.0 4.0 0.00 0.00 0.00 62 1014.0
20220527203539 89 166 1.0 5.0 0.00 0.00 0.00 62 1014.0
20220527203037 89 104 2.0 5.0 0.00 0.00 0.00 65 1014.1
20220527202537 90 63 2.0 7.0 0.00 0.00 0.00 63 1014.1
20220527202036 91 154 2.0 7.0 0.00 0.00 0.00 62 1014.3
20220527201542 90 33 2.0 6.0 0.00 0.00 0.00 66 1014.3
20220527201036 91 146 2.0 6.0 0.00 0.00 0.00 61 1014.3
20220527200536 92 258 1.0 4.0 0.00 0.00 0.00 60 1014.2
20220527200035 91 56 1.0 4.0 0.00 0.00 0.00 61 1014.4
20220527195538 91 142 2.0 6.0 0.00 0.00 0.00 62 1014.5
20220527195034 90 330 2.0 6.0 0.00 0.00 0.00 61 1014.6
20220527194534 90 232 2.0 8.0 0.00 0.00 0.00 66 1014.6
20220527194033 89 346 2.0 8.0 0.00 0.00 0.00 68 1014.7
20220527193533 90 309 2.0 7.0 0.00 0.00 0.00 64 1014.8
20220527193304 91 325 2.0 7.0 0.00 0.00 0.00 62 1014.9
20220527192531 91 231 2.0 8.0 0.00 0.00 0.00 65 1015.0
20220527192032 90 248 2.0 8.0 0.00 0.00 0.00 68 1015.0
20220527191533 89 13 2.0 7.0 0.00 0.00 0.00 62 1015.0
20220527191030 90 234 2.0 9.0 0.00 0.00 0.00 67 1015.1
20220527190532 89 40 2.0 9.0 0.00 0.00 0.00 65 1015.2
20220527190028 89 228 2.0 9.0 0.00 0.00 0.00 65 1015.2
20220527185528 90 215 2.0 9.0 0.00 0.00 0.00 64 1015.3
20220527185024 89 261 2.0 7.0 0.00 0.00 0.00 69 1015.4
20220527184524 89 49 2.0 8.0 0.00 0.00 0.00 66 1015.4
20220527184024 90 298 1.0 8.0 0.00 0.00 0.00 63 1015.4
20220527183523 90 313 2.0 8.0 0.00 0.00 0.00 64 1015.5
20220527183023 90 265 2.0 10.0 0.00 0.00 0.00 65 1015.5
20220527182525 90 240 2.0 10.0 0.00 0.00 0.00 64 1015.6
20220527182022 90 298 2.0 10.0 0.00 0.00 0.00 64 1015.6
20220527181521 89 203 3.0 10.0 0.00 0.00 0.00 67 1015.7
20220527181023 89 228 3.0 8.0 0.00 0.00 0.00 62 1015.7
20220527180514 89 319 3.0 10.0 0.00 0.00 0.00 64 1015.8
20220527180013 89 5 3.0 10.0 0.00 0.00 0.00 64 1015.8
20220527175510 89 244 3.0 10.0 0.00 0.00 0.00 64 1015.9
20220527175010 89 247 4.0 10.0 0.00 0.00 0.00 65 1015.9
20220527174507 89 229 3.0 8.0 0.00 0.00 0.00 65 1016.0
20220527174005 89 340 1.0 5.0 0.00 0.00 0.00 69 1016.0
20220527173737 89 44 1.0 8.0 0.00 0.00 0.00 68 1016.1
20220527173005 88 286 2.0 8.0 0.00 0.00 0.00 69 1016.1
20220527172505 87 251 2.0 8.0 0.00 0.00 0.00 68 1016.2
20220527172004 88 336 2.0 8.0 0.00 0.00 0.00 67 1016.2
20220527171503 87 246 2.0 7.0 0.00 0.00 0.00 69 1016.3
20220527170959 87 46 2.0 7.0 0.00 0.00 0.00 74 1016.3
20220527170500 87 230 2.0 8.0 0.00 0.00 0.00 71 1016.3
20220527165959 87 257 2.0 8.0 0.00 0.00 0.00 70 1016.4
20220527165501 87 229 2.0 8.0 0.00 0.00 0.00 69 1016.5
20220527164957 87 278 2.0 8.0 0.00 0.00 0.00 70 1016.5
20220527164457 87 302 2.0 7.0 0.00 0.00 0.00 71 1016.5
20220527163959 86 192 2.0 6.0 0.00 0.00 0.00 72 1016.5
20220527163456 85 5 2.0 11.0 0.00 0.00 0.00 74 1016.6
20220527162953 85 188 2.0 11.0 0.00 0.00 0.00 74 1016.6
20220527162452 86 239 2.0 11.0 0.00 0.00 0.00 73 1016.7
20220527161952 85 256 2.0 11.0 0.00 0.00 0.00 75 1016.7
20220527161724 84 225 2.0 7.0 0.00 0.00 0.00 75 1016.7
20220527160948 85 290 2.0 7.0 0.00 0.00 0.00 76 1016.8
20220527160450 85 213 2.0 10.0 0.00 0.00 0.00 74 1016.8
20220527155947 85 240 2.0 10.0 0.00 0.00 0.00 75 1016.7
20220527155450 84 280 3.0 10.0 0.00 0.00 0.00 77 1016.8
20220527154946 84 214 3.0 10.0 0.00 0.00 0.00 76 1016.7
20220527154446 84 207 3.0 10.0 0.00 0.00 0.00 78 1016.8
20220527153945 84 196 2.0 10.0 0.00 0.00 0.00 76 1016.8
20220527153446 83 115 2.0 10.0 0.00 0.00 0.00 77 1016.8
20220527152948 83 225 2.0 10.0 0.00 0.00 0.00 78 1016.8
20220527152445 83 308 2.0 8.0 0.00 0.00 0.00 78 1016.8
20220527151944 82 0 2.0 7.0 0.00 0.00 0.00 79 1016.8
20220527151444 82 46 2.0 7.0 0.00 0.00 0.00 78 1016.8
20220527150942 82 223 2.0 7.0 0.00 0.00 0.00 80 1016.8
20220527150442 81 202 2.0 7.0 0.00 0.00 0.00 80 1016.8
20220527145939 81 332 2.0 7.0 0.00 0.00 0.00 81 1016.8
20220527145438 81 57 2.0 6.0 0.00 0.00 0.00 80 1016.9
20220527144938 81 350 1.0 7.0 0.00 0.00 0.00 81 1017.0
20220527144438 81 40 2.0 7.0 0.00 0.00 0.00 81 1017.0
20220527143940 80 338 2.0 7.0 0.00 0.00 0.00 81 1017.0
20220527143434 80 246 2.0 7.0 0.00 0.00 0.00 82 1017.0
20220527142935 80 341 2.0 6.0 0.00 0.00 0.00 82 1017.0
20220527142433 80 319 2.0 6.0 0.00 0.00 0.00 82 1017.1
20220527141934 79 33 2.0 6.0 0.00 0.00 0.00 82 1017.1
20220527141437 79 346 2.0 8.0 0.00 0.00 0.00 84 1017.1
20220527140933 78 311 2.0 8.0 0.00 0.00 0.00 84 1017.0
20220527140435 77 254 2.0 6.0 0.00 0.00 0.00 86 1017.0
20220527135932 76 338 2.0 8.0 0.00 0.00 0.00 87 1016.9
20220527135436 76 281 2.0 8.0 0.00 0.00 0.00 88 1017.0
20220527134930 76 271 2.0 8.0 0.00 0.00 0.00 88 1016.9
20220527134430 76 25 2.0 8.0 0.00 0.00 0.00 88 1016.9
20220527134200 75 242 2.0 8.0 0.00 0.00 0.00 88 1016.9
20220527133430 75 275 1.0 8.0 0.00 0.00 0.00 89 1016.8
20220527132930 75 317 1.0 5.0 0.00 0.00 0.00 89 1016.8
20220527132428 75 252 2.0 5.0 0.00 0.00 0.00 89 1016.8
20220527131930 75 311 1.0 5.0 0.00 0.00 0.00 89 1016.8
20220527131430 74 322 1.0 5.0 0.00 0.00 0.00 89 1016.8
20220527130930 74 238 1.0 3.0 0.00 0.00 0.00 88 1016.8
20220527130430 74 0 1.0 3.0 0.00 0.00 0.00 88 1016.7
20220527125930 74 5 0.0 2.0 0.00 0.00 0.00 87 1016.7
20220527125428 74 10 0.0 2.0 0.00 0.00 0.00 87 1016.7
20220527124926 73 15 0.0 1.0 0.00 0.00 0.00 87 1016.6
20220527124424 73 15 0.0 1.0 0.00 0.00 0.00 87 1016.6
20220527123925 73 15 0.0 0.0 0.00 0.00 0.00 86 1016.6
20220527123429 73 15 0.0 0.0 0.00 0.00 0.00 86 1016.6
20220527122926 73 15 0.0 0.0 0.00 0.00 0.00 86 1016.6
20220527122424 73 15 0.0 0.0 0.00 0.00 0.00 86 1016.6
20220527121927 73 15 0.0 0.0 0.00 0.00 0.00 86 1016.6
20220527121424 73 15 0.0 0.0 0.00 0.00 0.00 86 1016.5
20220527120923 73 15 0.0 0.0 0.00 0.00 0.00 86 1016.6
20220527120421 73 15 0.0 0.0 0.00 0.00 0.00 86 1016.5
20220527115920 73 15 0.0 0.0 0.00 0.00 0.00 86 1016.4
20220527115422 73 15 0.0 1.0 0.00 0.00 0.00 86 1016.5
20220527114921 73 15 0.0 1.0 0.00 0.00 0.00 85 1016.5
20220527114423 73 15 0.0 1.0 0.00 0.00 0.00 85 1016.5
20220527113921 73 15 0.0 1.0 0.00 0.00 0.00 85 1016.5
20220527113422 73 15 0.0 1.0 0.00 0.00 0.00 86 1016.4
20220527112922 73 15 0.0 1.0 0.00 0.00 0.00 86 1016.3
20220527112421 73 15 0.0 1.0 0.00 0.00 0.00 86 1016.3
20220527111921 73 15 0.0 1.0 0.00 0.00 0.00 86 1016.2
20220527111421 73 15 0.0 1.0 0.00 0.00 0.00 86 1016.1
20220527110922 73 15 0.0 1.0 0.00 0.00 0.00 86 1016.1
20220527110422 74 15 0.0 2.0 0.00 0.00 0.00 86 1016.1
20220527105923 74 15 0.0 2.0 0.00 0.00 0.00 85 1016.0
20220527105418 74 11 0.0 1.0 0.00 0.00 0.00 86 1015.9
20220527104917 74 11 0.0 1.0 0.00 0.00 0.00 86 1015.9
20220527104418 74 11 0.0 1.0 0.00 0.00 0.00 86 1015.8
20220527103918 74 11 0.0 1.0 0.00 0.00 0.00 86 1015.7
20220527103419 74 11 0.0 1.0 0.00 0.00 0.00 86 1015.7
20220527102917 74 11 0.0 1.0 0.00 0.00 0.00 85 1015.6
20220527102418 74 11 0.0 1.0 0.00 0.00 0.00 85 1015.5
20220527101912 74 11 0.0 1.0 0.00 0.00 0.00 85 1015.5
20220527101417 74 11 0.0 1.0 0.00 0.00 0.00 85 1015.4
20220527100913 74 11 1.0 1.0 0.00 0.00 0.00 85 1015.3
20220527100413 74 15 1.0 3.0 0.00 0.00 0.00 85 1015.3
20220527095912 75 15 1.0 3.0 0.00 0.00 0.00 85 1015.3
20220527095412 75 22 1.0 4.0 0.00 0.00 0.00 85 1015.2
20220527094912 75 32 1.0 4.0 0.00 0.00 0.00 85 1015.1
20220527094411 75 46 0.0 3.0 0.00 0.00 0.00 85 1015.1
20220527093910 75 261 0.0 1.0 0.00 0.00 0.00 85 1014.8
20220527093409 75 260 0.0 2.0 0.00 0.00 0.00 84 1014.6
20220527092907 75 260 0.0 2.0 0.00 0.00 0.00 84 1014.5
20220527092403 75 260 0.0 4.0 0.00 0.00 0.00 84 1014.4
20220527091904 75 260 0.0 4.0 0.00 0.00 0.00 84 1014.4
20220527091403 75 269 0.0 1.0 0.00 0.00 0.00 84 1014.4
20220527090858 75 269 0.0 4.0 0.00 0.00 0.00 84 1014.4
20220527090401 75 268 0.0 4.0 0.00 0.00 0.00 84 1014.3
20220527085856 75 267 0.0 4.0 0.00 0.00 0.00 84 1014.3
20220527085355 75 267 1.0 4.0 0.00 0.00 0.00 84 1014.3
20220527084854 75 242 1.0 3.0 0.00 0.00 0.00 84 1014.3
20220527084356 75 219 0.0 2.0 0.00 0.00 0.00 84 1014.2
20220527083854 75 219 0.0 3.0 0.00 0.00 0.00 84 1014.2
20220527083356 75 217 0.0 3.0 0.00 0.00 0.00 84 1014.2
20220527082851 75 227 1.0 3.0 0.00 0.00 0.00 84 1014.2
20220527082352 75 228 1.0 3.0 0.00 0.00 0.00 84 1014.1
20220527081849 76 179 0.0 3.0 0.00 0.00 0.00 84 1014.1
20220527081345 76 180 0.0 3.0 0.00 0.00 0.00 83 1014.1
20220527080845 76 180 0.0 3.0 0.00 0.00 0.00 83 1014.2
20220527080342 76 180 0.0 3.0 0.00 0.00 0.00 83 1014.2
20220527075840 76 250 0.0 2.0 0.00 0.00 0.00 83 1014.2
20220527075339 76 207 0.0 1.0 0.00 0.00 0.00 82 1014.2
20220527074839 76 207 0.0 2.0 0.00 0.00 0.00 82 1014.2
20220527074336 76 207 0.0 2.0 0.00 0.00 0.00 82 1014.1
20220527073837 76 215 0.0 1.0 0.00 0.00 0.00 82 1014.2
20220527073336 76 215 0.0 4.0 0.00 0.00 0.00 82 1014.1
20220527072835 76 215 0.0 4.0 0.00 0.00 0.00 82 1014.1
20220527072335 76 215 0.0 5.0 0.00 0.00 0.00 81 1014.1
20220527071832 76 215 0.0 5.0 0.00 0.00 0.00 81 1014.2
20220527071332 76 120 0.0 2.0 0.00 0.00 0.00 80 1014.1
20220527070836 76 152 0.0 1.0 0.00 0.00 0.00 80 1014.1
20220527070332 76 152 0.0 1.0 0.00 0.00 0.00 80 1014.1
20220527065834 76 152 0.0 1.0 0.00 0.00 0.00 80 1014.1
20220527065335 76 152 0.0 1.0 0.00 0.00 0.00 80 1014.1
20220527064832 77 152 0.0 1.0 0.00 0.00 0.00 79 1014.1
20220527064332 77 152 0.0 1.0 0.00 0.00 0.00 79 1014.1
20220527063828 77 152 0.0 2.0 0.00 0.00 0.00 79 1014.2
20220527063330 77 152 0.0 3.0 0.00 0.00 0.00 78 1014.3
20220527062828 77 150 0.0 3.0 0.00 0.00 0.00 79 1014.3
20220527062329 77 152 1.0 3.0 0.00 0.00 0.00 78 1014.3
20220527061825 77 154 0.0 3.0 0.00 0.00 0.00 77 1014.3
20220527061327 77 163 0.0 3.0 0.00 0.00 0.00 78 1014.3
20220527060823 77 163 0.0 4.0 0.00 0.00 0.00 77 1014.3
20220527060323 78 163 0.0 4.0 0.00 0.00 0.00 77 1014.4
20220527055820 78 150 0.0 4.0 0.00 0.00 0.00 77 1014.4
20220527055321 78 157 1.0 4.0 0.00 0.00 0.00 76 1014.3
20220527054824 78 102 1.0 4.0 0.00 0.00 0.00 77 1014.3
20220527054322 78 156 1.0 4.0 0.00 0.00 0.00 77 1014.4
20220527053821 78 169 1.0 4.0 0.00 0.00 0.00 76 1014.4
20220527053321 78 134 1.0 3.0 0.00 0.00 0.00 76 1014.4
20220527052822 78 140 1.0 4.0 0.00 0.00 0.00 76 1014.4
20220527052320 78 134 1.0 4.0 0.00 0.00 0.00 76 1014.3
20220527051821 78 158 1.0 3.0 0.00 0.00 0.00 75 1014.3
20220527051322 78 173 0.0 2.0 0.00 0.00 0.00 75 1014.3
20220527050821 78 173 1.0 3.0 0.00 0.00 0.00 75 1014.3
20220527050321 78 156 1.0 3.0 0.00 0.00 0.00 75 1014.3
20220527045821 78 180 1.0 4.0 0.00 0.00 0.00 74 1014.3
20220527045321 78 181 1.0 4.0 0.00 0.00 0.00 74 1014.3
20220527044822 79 91 1.0 4.0 0.00 0.00 0.00 74 1014.3
20220527044321 79 120 1.0 4.0 0.00 0.00 0.00 73 1014.2
20220527043822 79 162 1.0 2.0 0.00 0.00 0.00 73 1014.3
20220527043321 79 19 1.0 3.0 0.00 0.00 0.00 73 1014.2
20220527042823 79 131 1.0 3.0 0.00 0.00 0.00 73 1014.2
20220527042320 79 109 1.0 3.0 0.00 0.00 0.00 72 1014.2
20220527041822 79 150 1.0 6.0 0.00 0.00 0.00 72 1014.1
20220527041325 79 184 1.0 6.0 0.00 0.00 0.00 72 1014.0
20220527040821 79 184 2.0 6.0 0.00 0.00 0.00 71 1014.0
20220527040321 79 163 1.0 6.0 0.00 0.00 0.00 71 1013.9
20220527035822 79 256 1.0 6.0 0.00 0.00 0.00 70 1013.9
20220527035322 79 194 1.0 6.0 0.00 0.00 0.00 70 1013.8
20220527034822 79 169 1.0 6.0 0.00 0.00 0.00 70 1013.8
20220527034322 79 184 1.0 4.0 0.00 0.00 0.00 70 1013.8
20220527033821 79 182 1.0 4.0 0.00 0.00 0.00 70 1013.8
20220527033321 79 179 1.0 4.0 0.00 0.00 0.00 71 1013.7
20220527032821 79 182 1.0 5.0 0.00 0.00 0.00 71 1013.7
20220527032322 79 134 2.0 7.0 0.00 0.00 0.00 71 1013.6
20220527031817 79 163 2.0 7.0 0.00 0.00 0.00 71 1013.6
20220527031317 79 178 1.0 4.0 0.00 0.00 0.00 70 1013.6
20220527030818 79 126 1.0 4.0 0.00 0.00 0.00 69 1013.5
20220527030318 79 146 1.0 4.0 0.00 0.00 0.00 67 1013.3
20220527025817 79 162 1.0 4.0 0.00 0.00 0.00 66 1013.2
20220527025317 79 117 1.0 5.0 0.00 0.00 0.00 64 1013.1
20220527024817 79 117 1.0 5.0 0.00 0.00 0.00 61 1013.1
20220527024317 79 193 1.0 3.0 0.00 0.00 0.00 61 1013.0
20220527023819 79 325 0.0 1.0 0.00 0.00 0.00 58 1012.9
20220527023312 80 325 0.0 0.0 0.00 0.00 0.00 58 1012.8
20220527022811 80 325 0.0 0.0 0.00 0.00 0.00 57 1012.7
20220527022311 80 325 0.0 0.0 0.00 0.00 0.00 57 1012.6
20220527021811 80 325 0.0 0.0 0.00 0.00 0.00 56 1012.6
20220527021311 81 325 0.0 0.0 0.00 0.00 0.00 55 1012.6
20220527020812 81 325 0.0 0.0 0.00 0.00 0.00 55 1012.5
20220527020311 81 325 0.0 0.0 0.00 0.00 0.00 54 1012.5
20220527015816 81 325 0.0 0.0 0.00 0.00 0.00 54 1012.5
20220527015312 82 325 0.0 0.0 0.00 0.00 0.00 53 1012.3
20220527014813 82 0 0.0 0.0 0.00 0.00 0.00 53 1012.4
20220527014315 82 325 0.0 0.0 0.00 0.00 0.00 53 1012.3
20220527013810 82 0 0.0 0.0 0.00 0.00 0.00 53 1012.2
20220527013311 82 0 0.0 0.0 0.00 0.00 0.00 53 1012.2
20220527012810 82 0 0.0 0.0 0.00 0.00 0.00 53 1012.2
20220527012310 82 0 0.0 0.0 0.00 0.00 0.00 53 1012.2
20220527011813 82 323 0.0 1.0 0.00 0.00 0.00 53 1012.1
20220527011311 82 325 0.0 1.0 0.00 0.00 0.00 53 1012.0